This demonstration page uses our WeatherBlox Daily Observations layout. Learn more.

Hourly Observations for August 2, 2018

Temp ( °F °C ) Dew Point ( °F °C ) Humidity (%) Winds ( mph kmh ) Pressure ( in mb ) Visibility ( mi km ) Precip ( " mm )
12:15 am 00:15 Clear 68 20.2 60 15.8 76 76 SSW 6 9 29.94 1014 10 16.0934 0 0
12:35 am 00:35 Clear 70 20.9 60 15.7 72 72 SSW 8 13 29.97 1015 10 16.0934 0 0
12:55 am 00:55 Clear 68 20.1 61 15.9 77 77 SSW 6 9 29.97 1015 10 16.0934 0 0
1:15 am 01:15 Clear 68 20.1 61 15.9 77 77 SSW 6 9 29.97 1015 10 16.0934 0 0
1:35 am 01:35 Clear 66 19 61 15.9 82 82 SSW 6 9 30 1016 10 16.0934 0 0
1:55 am 01:55 Clear 66 19 60 15.8 82 82 SSW 5 7 30 1016 10 16.0934 0 0
2:15 am 02:15 Clear 67 19.3 60 15.6 79 79 SSW 5 7 30 1016 10 16.0934 0 0
2:35 am 02:35 Clear 65 18.6 60 15.5 82 82 SW 5 7 30 1016 10 16.0934 0 0
2:55 am 02:55 Clear 65 18.6 60 15.5 82 82 SW 3 6 30 1016 10 16.0934 0 0
3:15 am 03:15 Clear 61 16.1 60 15.3 95 95 NE 3 6 30.03 1017 10 16.0934 0 0
3:35 am 03:35 Clear 63 17 60 15.3 90 90 ENE 6 9 30 1016 10 16.0934 0 0
3:55 am 03:55 Clear 62 16.5 62 16.4 99 99 E 3 6 30.03 1017 7 11.26538 0 0
4:15 am 04:15 Clear 61 16.1 61 16.1 100 100 E 5 7 30 1016 7 11.26538 0 0
4:35 am 04:35 Clear 61 16 61 16 100 100 Calm 30 1016 7 11.26538 0 0
4:55 am 04:55 Clear 61 15.9 61 15.9 100 100 ESE 3 6 30.03 1017 7 11.26538 0 0
5:15 am 05:15 Clear with Mist and Fog 59 15.1 59 15.1 100 100 Calm 30.03 1017 5 8.0467 0 0
5:35 am 05:35 Clear 60 15.5 60 15.5 100 100 Calm 30.03 1017 7 11.26538 0 0
5:50 am 05:50 Clear 59 15.1 59 15.1 100 100 Calm 30 1016 7 11.26538 0 0
6:15 am 06:15 Clear 60 15.3 60 15.3 100 100 SSE 3 6 30 1016 7 11.26538 0 0
6:35 am 06:35 Clear 60 15.3 60 15.3 100 100 Calm 30 1016 10 16.0934 0 0
6:55 am 06:55 Sunny 59 15.1 59 15 99 99 Calm 30 1016 10 16.0934 0 0
7:15 am 07:15 Sunny 60 15.5 59 14.9 96 96 SSE 3 6 30 1016 10 16.0934 0 0
7:35 am 07:35 Sunny 61 15.9 59 15.2 96 96 S 5 7 30 1016 10 16.0934 0 0
7:55 am 07:55 Sunny 64 17.5 61 16 91 91 S 5 7 29.97 1015 10 16.0934 0 0
8:15 am 08:15 Sunny 65 18.5 62 16.5 88 88 SSW 5 7 29.97 1015 10 16.0934 0 0
8:35 am 08:35 Sunny 67 19.7 63 17.2 86 86 SSW 6 9 29.97 1015 10 16.0934 0 0
8:55 am 08:55 Sunny 70 20.9 63 17.3 80 80 SSW 7 11 29.94 1014 10 16.0934 0 0
9:15 am 09:15 Sunny 72 22 63 17.4 75 75 SSW 8 13 29.94 1014 10 16.0934 0 0
9:35 am 09:35 Sunny 74 23.1 63 17.4 70 70 SW 10 17 29.94 1014 10 16.0934 0 0
9:55 am 09:55 Sunny 74 23.6 63 17.1 67 67 SW 14 22 29.91 1013 10 16.0934 0 0
10:15 am 10:15 Sunny 76 24.3 63 17.2 65 65 SW 10 17 29.91 1013 10 16.0934 0 0
10:35 am 10:35 Sunny 77 25.2 64 17.8 64 64 SW 12 19 29.91 1013 10 16.0934 0 0
10:55 am 10:55 Sunny 78 25.7 64 17.8 62 62 SW 9 15 29.91 1013 10 16.0934 0 0
11:15 am 11:15 Sunny 80 26.5 64 17.7 59 59 SSW 12 19 29.91 1013 10 16.0934 0 0
11:35 am 11:35 Sunny 81 27.1 66 19.1 62 62 SSW 9 15 29.88 1012 10 16.0934 0 0
11:55 am 11:55 Sunny 82 27.5 66 18.7 59 59 SSW 14 22 29.88 1012 10 16.0934 0 0
12:15 pm 12:15 Sunny 83 28.1 65 18.1 55 55 SSW 14 22 29.85 1011 10 16.0934 0 0
12:35 pm 12:35 Sunny 83 28.6 67 19.2 57 57 SSW 12 19 29.85 1011 10 16.0934 0 0
12:55 pm 12:55 Sunny 84 28.8 64 17.6 51 51 SSW 14 22 29.85 1011 10 16.0934 0 0
1:15 pm 13:15 Sunny 85 29.5 66 18.8 53 53 SSW 10 17 29.85 1011 10 16.0934 0 0
1:35 pm 13:35 Sunny 85 29.5 65 18.1 50 50 S 13 20 29.85 1011 10 16.0934 0 0
1:55 pm 13:55 Sunny 86 29.8 63 17.1 46 46 S 16 26 29.85 1011 10 16.0934 0 0
2:15 pm 14:15 Sunny 86 30.2 61 15.9 42 42 SSW 14 22 29.85 1011 10 16.0934 0 0
2:35 pm 14:35 Sunny 87 30.4 62 16.9 44 44 S 13 20 29.85 1011 10 16.0934 0 0
2:55 pm 14:55 Sunny 87 30.4 64 17.5 46 46 S 13 20 29.85 1011 10 16.0934 0 0
3:15 pm 15:15 Sunny 87 30.7 64 17.5 45 45 S 13 20 29.8 1009 10 16.0934 0 0
3:35 pm 15:35 Sunny 87 30.8 63 17.4 45 45 S 14 22 29.8 1009 10 16.0934 0 0
3:55 pm 15:55 Sunny 88 31 64 17.7 45 45 S 12 19 29.8 1009 10 16.0934 0 0
4:15 pm 16:15 Sunny 88 31.1 62 16.6 42 42 SSW 10 17 29.8 1009 10 16.0934 0 0
4:35 pm 16:35 Sunny 88 31.1 63 17.1 43 43 S 10 17 29.8 1009 10 16.0934 0 0
4:55 pm 16:55 Sunny 88 30.9 64 17.7 45 45 S 9 15 29.8 1009 10 16.0934 0 0
5:15 pm 17:15 Sunny 88 31 63 17 43 43 S 10 17 29.8 1009 10 16.0934 0 0
5:35 pm 17:35 Sunny 87 30.5 65 18.5 49 49 S 9 15 29.8 1009 10 16.0934 0 0
5:55 pm 17:55 Sunny 87 30.4 66 18.8 50 50 S 9 15 29.8 1009 10 16.0934 0 0
6:15 pm 18:15 Sunny 86 30.1 64 18 48 48 S 9 15 29.83 1010 10 16.0934 0 0
6:35 pm 18:35 Sunny 86 30 65 18.4 50 50 S 8 13 29.83 1010 10 16.0934 0 0
6:55 pm 18:55 Sunny 85 29.3 66 19 54 54 S 6 9 29.83 1010 10 16.0934 0 0
7:15 pm 19:15 Sunny 84 28.7 67 19.2 56 56 S 6 9 29.83 1010 10 16.0934 0 0
7:35 pm 19:35 Sunny 82 27.9 66 19.1 59 59 SSE 8 13 29.83 1010 10 16.0934 0 0
7:55 pm 19:55 Sunny 81 27 66 18.7 60 60 S 7 11 29.83 1010 10 16.0934 0 0
8:15 pm 20:15 Sunny 79 25.9 66 18.8 65 65 SSE 6 9 29.85 1011 10 16.0934 0 0
8:35 pm 20:35 Sunny 77 24.9 65 18.3 67 67 S 6 9 29.85 1011 10 16.0934 0 0
8:55 pm 20:55 Clear 75 23.7 64 17.8 70 70 SSE 8 13 29.85 1011 10 16.0934 0 0
9:15 pm 21:15 Clear 75 24 62 16.7 64 64 SSE 8 13 29.85 1011 10 16.0934 0 0
9:35 pm 21:35 Clear 73 22.8 63 17.1 70 70 SSE 9 15 29.85 1011 10 16.0934 0 0
9:55 pm 21:55 Clear 72 22.3 62 16.5 70 70 SSE 9 15 29.88 1012 10 16.0934 0 0
10:15 pm 22:15 Clear 72 22.1 62 16.6 71 71 SSE 9 15 29.88 1012 10 16.0934 0 0
10:35 pm 22:35 Clear 72 22.2 62 16.8 72 72 SSE 8 13 29.88 1012 10 16.0934 0 0
10:55 pm 22:55 Clear 73 22.5 62 16.7 70 70 SSE 10 17 29.88 1012 10 16.0934 0 0
11:15 pm 23:15 Clear 72 22 62 16.9 73 73 S 8 13 29.88 1012 10 16.0934 0 0
11:35 pm 23:35 Clear 70 21.3 63 17 77 77 S 8 13 29.88 1012 10 16.0934 0 0
11:55 pm 23:55 Clear 71 21.5 63 17 76 76 S 8 13 29.88 1012 10 16.0934 0 0

Powered by AerisWeather